Year,Month,Day,Hour,Minute,Value (Times are PST for windspeed in km/hr)
2022,05,15,00,00,1.60
2022,05,15,00,01,3.70
2022,05,15,00,02,1.40
2022,05,15,00,03,1.40
2022,05,15,00,04,0.80
2022,05,15,00,05,0.50
2022,05,15,00,06,1.10
2022,05,15,00,07,1.50
2022,05,15,00,08,3.60
2022,05,15,00,09,2.40
2022,05,15,00,10,2.10
2022,05,15,00,11,1.40
2022,05,15,00,12,1.40
2022,05,15,00,13,3.90
2022,05,15,00,14,2.20
2022,05,15,00,15,1.50
2022,05,15,00,16,2.40
2022,05,15,00,17,3.30
2022,05,15,00,18,4.70
2022,05,15,00,19,3.00
2022,05,15,00,20,3.10
2022,05,15,00,21,0.70
2022,05,15,00,22,0.00
2022,05,15,00,23,1.90
2022,05,15,00,24,4.00
2022,05,15,00,25,4.00
2022,05,15,00,26,3.00
2022,05,15,00,27,3.20
2022,05,15,00,28,2.70
2022,05,15,00,29,1.10
2022,05,15,00,30,1.70
2022,05,15,00,31,1.20
2022,05,15,00,32,2.80
2022,05,15,00,33,4.20
2022,05,15,00,34,3.20
2022,05,15,00,35,2.30
2022,05,15,00,36,1.70
2022,05,15,00,37,3.50
2022,05,15,00,38,1.80
2022,05,15,00,39,3.40
2022,05,15,00,40,3.90
2022,05,15,00,41,3.30
2022,05,15,00,42,0.60
2022,05,15,00,43,0.60
2022,05,15,00,44,1.60
2022,05,15,00,45,2.30
2022,05,15,00,46,1.90
2022,05,15,00,47,3.20
2022,05,15,00,48,4.40
2022,05,15,00,49,3.10
2022,05,15,00,50,4.50
2022,05,15,00,51,4.00
2022,05,15,00,52,2.90
2022,05,15,00,53,2.70
2022,05,15,00,54,2.30
2022,05,15,00,55,0.60
2022,05,15,00,56,0.30
2022,05,15,00,57,0.60
2022,05,15,00,58,0.60
2022,05,15,00,59,0.30
2022,05,15,01,00,0.40
2022,05,15,01,01,0.40
2022,05,15,01,02,0.80
2022,05,15,01,03,0.70
2022,05,15,01,04,2.70
2022,05,15,01,05,3.90
2022,05,15,01,06,2.70
2022,05,15,01,07,2.00
2022,05,15,01,08,0.70
2022,05,15,01,09,0.00
2022,05,15,01,10,0.90
2022,05,15,01,11,2.80
2022,05,15,01,12,0.30
2022,05,15,01,13,0.30
2022,05,15,01,14,0.40
2022,05,15,01,15,1.00
2022,05,15,01,16,0.80
2022,05,15,01,17,3.10
2022,05,15,01,18,3.10
2022,05,15,01,19,0.10
2022,05,15,01,20,1.20
2022,05,15,01,21,0.60
2022,05,15,01,22,1.10
2022,05,15,01,23,0.90
2022,05,15,01,24,1.10
2022,05,15,01,25,1.30
2022,05,15,01,26,1.60
2022,05,15,01,27,0.60
2022,05,15,01,28,0.00
2022,05,15,01,29,0.00
2022,05,15,01,30,1.90
2022,05,15,01,31,1.90
2022,05,15,01,32,0.60
2022,05,15,01,33,0.40
2022,05,15,01,34,0.10
2022,05,15,01,35,0.00
2022,05,15,01,36,0.90
2022,05,15,01,37,1.50
2022,05,15,01,38,2.60
2022,05,15,01,39,1.30
2022,05,15,01,40,1.80
2022,05,15,01,41,2.30
2022,05,15,01,42,1.60
2022,05,15,01,43,2.60
2022,05,15,01,44,3.50
2022,05,15,01,45,1.50
2022,05,15,01,46,0.90
2022,05,15,01,47,2.20
2022,05,15,01,48,2.50
2022,05,15,01,49,1.40
2022,05,15,01,50,0.60
2022,05,15,01,51,2.10
2022,05,15,01,52,1.80
2022,05,15,01,53,2.10
2022,05,15,01,54,2.00
2022,05,15,01,55,2.20
2022,05,15,01,56,2.90
2022,05,15,01,57,2.20
2022,05,15,01,58,1.60
2022,05,15,01,59,1.80
2022,05,15,02,00,2.80
2022,05,15,02,01,2.60
2022,05,15,02,02,2.00
2022,05,15,02,03,2.00
2022,05,15,02,04,3.40
2022,05,15,02,05,2.10
2022,05,15,02,06,1.60
2022,05,15,02,07,1.50
2022,05,15,02,08,1.80
2022,05,15,02,09,3.40
2022,05,15,02,10,1.90
2022,05,15,02,11,3.00
2022,05,15,02,12,2.80
2022,05,15,02,13,1.70
2022,05,15,02,14,2.60
2022,05,15,02,15,3.80
2022,05,15,02,16,1.80
2022,05,15,02,17,2.20
2022,05,15,02,18,3.60
2022,05,15,02,19,2.80
2022,05,15,02,20,3.50
2022,05,15,02,21,4.00
2022,05,15,02,22,1.90
2022,05,15,02,23,2.90
2022,05,15,02,24,1.90
2022,05,15,02,25,2.50
2022,05,15,02,26,3.50
2022,05,15,02,27,3.30
2022,05,15,02,28,1.90
2022,05,15,02,29,2.90
2022,05,15,02,30,1.60
2022,05,15,02,31,1.00
2022,05,15,02,32,2.00
2022,05,15,02,33,0.80
2022,05,15,02,34,1.40
2022,05,15,02,35,3.10
2022,05,15,02,36,1.80
2022,05,15,02,37,3.10
2022,05,15,02,38,2.60
2022,05,15,02,39,0.40
2022,05,15,02,40,1.80
2022,05,15,02,41,0.00
2022,05,15,02,42,0.90
2022,05,15,02,43,3.20
2022,05,15,02,44,2.80
2022,05,15,02,45,1.90
2022,05,15,02,46,1.80
2022,05,15,02,47,1.60
2022,05,15,02,48,3.80
2022,05,15,02,49,2.00
2022,05,15,02,50,1.80
2022,05,15,02,51,1.50
2022,05,15,02,52,1.10
2022,05,15,02,53,1.60
2022,05,15,02,54,2.10
2022,05,15,02,55,2.10
2022,05,15,02,56,1.90
2022,05,15,02,57,2.70
2022,05,15,02,58,1.90
2022,05,15,02,59,0.40
2022,05,15,03,00,1.10
2022,05,15,03,01,1.40
2022,05,15,03,02,2.60
2022,05,15,03,03,2.90
2022,05,15,03,04,2.20
2022,05,15,03,05,1.40
2022,05,15,03,06,0.90
2022,05,15,03,07,1.60
2022,05,15,03,08,1.90
2022,05,15,03,09,1.50
2022,05,15,03,10,0.50
2022,05,15,03,11,0.00
2022,05,15,03,12,1.40
2022,05,15,03,13,0.80
2022,05,15,03,14,1.90
2022,05,15,03,15,0.50
2022,05,15,03,16,1.30
2022,05,15,03,17,0.60
2022,05,15,03,18,0.00
2022,05,15,03,19,0.60
2022,05,15,03,20,1.10
2022,05,15,03,21,0.40
2022,05,15,03,22,0.00
2022,05,15,03,23,0.00
2022,05,15,03,24,0.00
2022,05,15,03,25,0.00
2022,05,15,03,26,0.00
2022,05,15,03,27,0.00
2022,05,15,03,28,0.00
2022,05,15,03,29,0.00
2022,05,15,03,30,1.80
2022,05,15,03,31,2.60
2022,05,15,03,32,3.50
2022,05,15,03,33,3.90
2022,05,15,03,34,2.40
2022,05,15,03,35,5.30
2022,05,15,03,36,2.20
2022,05,15,03,37,1.10
2022,05,15,03,38,1.00
2022,05,15,03,39,0.20
2022,05,15,03,40,1.40
2022,05,15,03,41,4.60
2022,05,15,03,42,3.00
2022,05,15,03,43,2.90
2022,05,15,03,44,1.60
2022,05,15,03,45,0.60
2022,05,15,03,46,0.70
2022,05,15,03,47,1.90
2022,05,15,03,48,4.00
2022,05,15,03,49,1.70
2022,05,15,03,50,0.60
2022,05,15,03,51,0.30
2022,05,15,03,52,0.40
2022,05,15,03,53,0.10
2022,05,15,03,54,0.10
2022,05,15,03,55,1.10
2022,05,15,03,56,0.60
2022,05,15,03,57,0.90
2022,05,15,03,58,0.40
2022,05,15,03,59,1.50
2022,05,15,04,00,0.90
2022,05,15,04,01,0.70
2022,05,15,04,02,0.10
2022,05,15,04,03,0.20
2022,05,15,04,04,0.00
2022,05,15,04,05,0.10
2022,05,15,04,06,0.20
2022,05,15,04,07,0.00
2022,05,15,04,08,0.00
2022,05,15,04,09,0.00
2022,05,15,04,10,0.00
2022,05,15,04,11,0.00
2022,05,15,04,12,0.00
2022,05,15,04,13,0.00
2022,05,15,04,14,0.00
2022,05,15,04,15,0.00
2022,05,15,04,16,0.00
2022,05,15,04,17,0.00
2022,05,15,04,18,0.00
2022,05,15,04,19,0.00
2022,05,15,04,20,0.00
2022,05,15,04,21,0.00
2022,05,15,04,22,0.00
2022,05,15,04,23,0.00
2022,05,15,04,24,0.00
2022,05,15,04,25,0.00
2022,05,15,04,26,0.00
2022,05,15,04,27,0.00
2022,05,15,04,28,0.00
2022,05,15,04,29,0.00
2022,05,15,04,30,0.00
2022,05,15,04,31,0.00
2022,05,15,04,32,0.00
2022,05,15,04,33,0.00
2022,05,15,04,34,0.00
2022,05,15,04,35,0.00
2022,05,15,04,36,0.00
2022,05,15,04,37,2.40
2022,05,15,04,38,2.30
2022,05,15,04,39,1.20
2022,05,15,04,40,0.20
2022,05,15,04,41,1.50
2022,05,15,04,42,1.40
2022,05,15,04,43,1.20
2022,05,15,04,44,1.40
2022,05,15,04,45,2.10
2022,05,15,04,46,1.50
2022,05,15,04,47,0.40
2022,05,15,04,48,0.00
2022,05,15,04,49,0.10
2022,05,15,04,50,0.00
2022,05,15,04,51,0.30
2022,05,15,04,52,0.00
2022,05,15,04,53,0.00
2022,05,15,04,54,0.00
2022,05,15,04,55,0.00
2022,05,15,04,56,0.00
2022,05,15,04,57,0.00
2022,05,15,04,58,0.00
2022,05,15,04,59,0.20
2022,05,15,05,00,0.00
2022,05,15,05,01,0.00
2022,05,15,05,02,0.00
2022,05,15,05,03,0.00
2022,05,15,05,04,0.00
2022,05,15,05,05,0.00
2022,05,15,05,06,0.00
2022,05,15,05,07,0.00
2022,05,15,05,08,0.00
2022,05,15,05,09,0.00
2022,05,15,05,10,0.00
2022,05,15,05,11,0.00
2022,05,15,05,12,0.00
2022,05,15,05,13,0.00
2022,05,15,05,14,0.00
2022,05,15,05,15,0.00
2022,05,15,05,16,0.00
2022,05,15,05,17,0.00
2022,05,15,05,18,0.00
2022,05,15,05,19,0.00
2022,05,15,05,20,0.00
2022,05,15,05,21,0.00
2022,05,15,05,22,0.00
2022,05,15,05,23,0.00
2022,05,15,05,24,0.00
2022,05,15,05,25,0.00
2022,05,15,05,26,0.00
2022,05,15,05,27,0.00
2022,05,15,05,28,0.00
2022,05,15,05,29,0.00
2022,05,15,05,30,0.00
2022,05,15,05,31,0.00
2022,05,15,05,32,0.00
2022,05,15,05,33,0.00
2022,05,15,05,34,0.00
2022,05,15,05,35,0.00
2022,05,15,05,36,0.00
2022,05,15,05,37,0.00
2022,05,15,05,38,0.00
2022,05,15,05,39,0.00
2022,05,15,05,40,0.00
2022,05,15,05,41,0.00
2022,05,15,05,42,0.00
2022,05,15,05,43,0.00
2022,05,15,05,44,0.00
2022,05,15,05,45,0.00
2022,05,15,05,46,0.00
2022,05,15,05,47,0.00
2022,05,15,05,48,0.00
2022,05,15,05,49,0.00
2022,05,15,05,50,0.00
2022,05,15,05,51,0.00
2022,05,15,05,52,0.00
2022,05,15,05,53,0.00
2022,05,15,05,54,0.00
2022,05,15,05,55,0.00
2022,05,15,05,56,0.00
2022,05,15,05,57,0.00
2022,05,15,05,58,0.00
2022,05,15,05,59,0.00
2022,05,15,06,00,0.00
2022,05,15,06,01,0.00
2022,05,15,06,02,0.00
2022,05,15,06,03,0.00
2022,05,15,06,04,0.00
2022,05,15,06,05,0.00
2022,05,15,06,06,0.00
2022,05,15,06,07,0.00
2022,05,15,06,08,0.00
2022,05,15,06,09,0.00
2022,05,15,06,10,0.00
2022,05,15,06,11,0.00
2022,05,15,06,12,0.00
2022,05,15,06,13,0.00
2022,05,15,06,14,0.00
2022,05,15,06,15,0.00
2022,05,15,06,16,0.00
2022,05,15,06,17,0.00
2022,05,15,06,18,0.00
2022,05,15,06,19,0.00
2022,05,15,06,20,0.00
2022,05,15,06,21,0.00
2022,05,15,06,22,0.00
2022,05,15,06,23,0.00
2022,05,15,06,24,0.00
2022,05,15,06,25,0.00
2022,05,15,06,26,0.00
2022,05,15,06,27,0.00
2022,05,15,06,28,0.00
2022,05,15,06,29,0.00
2022,05,15,06,30,0.00
2022,05,15,06,31,1.10
2022,05,15,06,32,1.00
2022,05,15,06,33,0.40
2022,05,15,06,34,1.70
2022,05,15,06,35,0.50
2022,05,15,06,36,0.00
2022,05,15,06,37,0.70
2022,05,15,06,38,0.60
2022,05,15,06,39,1.10
2022,05,15,06,40,1.20
2022,05,15,06,41,0.90
2022,05,15,06,42,0.00
2022,05,15,06,43,0.20
2022,05,15,06,44,0.10
2022,05,15,06,45,0.00
2022,05,15,06,46,0.00
2022,05,15,06,47,0.00
2022,05,15,06,48,0.50
2022,05,15,06,49,1.00
2022,05,15,06,50,0.00
2022,05,15,06,51,0.00
2022,05,15,06,52,0.80
2022,05,15,06,53,1.30
2022,05,15,06,54,0.20
2022,05,15,06,55,0.20
2022,05,15,06,56,0.50
2022,05,15,06,57,1.00
2022,05,15,06,58,0.10
2022,05,15,06,59,0.80
2022,05,15,07,00,1.50
2022,05,15,07,01,1.30
2022,05,15,07,02,1.50
2022,05,15,07,03,2.60
2022,05,15,07,04,1.30
2022,05,15,07,05,2.40
2022,05,15,07,06,2.00
2022,05,15,07,07,1.30
2022,05,15,07,08,0.50
2022,05,15,07,09,1.40
2022,05,15,07,10,1.10
2022,05,15,07,11,1.90
2022,05,15,07,12,1.20
2022,05,15,07,13,1.20
2022,05,15,07,14,0.40
2022,05,15,07,15,0.00
2022,05,15,07,16,2.50
2022,05,15,07,17,1.30
2022,05,15,07,18,0.40
2022,05,15,07,19,2.10
2022,05,15,07,20,1.40
2022,05,15,07,21,0.40
2022,05,15,07,22,1.50
2022,05,15,07,23,3.50
2022,05,15,07,24,2.00
2022,05,15,07,25,1.30
2022,05,15,07,26,2.70
2022,05,15,07,27,2.60
2022,05,15,07,28,1.90
2022,05,15,07,29,1.00
2022,05,15,07,30,2.00
2022,05,15,07,31,1.60
2022,05,15,07,32,2.30
2022,05,15,07,33,1.50
2022,05,15,07,34,0.10
2022,05,15,07,35,0.00
2022,05,15,07,36,0.80
2022,05,15,07,37,2.00
2022,05,15,07,38,1.50
2022,05,15,07,39,1.90
2022,05,15,07,40,3.30
2022,05,15,07,41,3.00
2022,05,15,07,42,1.10
2022,05,15,07,43,2.40
2022,05,15,07,44,1.80
2022,05,15,07,45,1.40
2022,05,15,07,46,0.60
2022,05,15,07,47,3.90
2022,05,15,07,48,2.00
2022,05,15,07,49,0.90
2022,05,15,07,50,2.60
2022,05,15,07,51,1.80
2022,05,15,07,52,2.30
2022,05,15,07,53,1.50
2022,05,15,07,54,0.90
2022,05,15,07,55,4.50
2022,05,15,07,56,3.10
2022,05,15,07,57,2.30
2022,05,15,07,58,1.90
2022,05,15,07,59,3.00
2022,05,15,08,00,2.60
2022,05,15,08,01,0.90
2022,05,15,08,02,0.40
2022,05,15,08,03,0.20
2022,05,15,08,04,0.80
2022,05,15,08,05,0.00
2022,05,15,08,06,0.00
2022,05,15,08,07,0.10
2022,05,15,08,08,0.20
2022,05,15,08,09,0.90
2022,05,15,08,10,3.80
2022,05,15,08,11,2.00
2022,05,15,08,12,0.90
2022,05,15,08,13,0.20
2022,05,15,08,14,0.90
2022,05,15,08,15,0.70
2022,05,15,08,16,1.90
2022,05,15,08,17,2.40
2022,05,15,08,18,0.70
2022,05,15,08,19,0.60
2022,05,15,08,20,1.90
2022,05,15,08,21,2.50
2022,05,15,08,22,1.50
2022,05,15,08,23,3.50
2022,05,15,08,24,3.40
2022,05,15,08,25,1.40
2022,05,15,08,26,0.50
2022,05,15,08,27,2.00
2022,05,15,08,28,0.90
2022,05,15,08,29,1.10
2022,05,15,08,30,1.70
2022,05,15,08,31,1.90
2022,05,15,08,32,1.60
2022,05,15,08,33,2.80
2022,05,15,08,34,0.90
2022,05,15,08,35,0.10
2022,05,15,08,36,1.80
2022,05,15,08,37,2.40
2022,05,15,08,38,2.10
2022,05,15,08,39,0.60
2022,05,15,08,40,0.30
2022,05,15,08,41,0.70
2022,05,15,08,42,0.70
2022,05,15,08,43,0.00
2022,05,15,08,44,2.70
2022,05,15,08,45,1.80
2022,05,15,08,46,1.50
2022,05,15,08,47,0.60
2022,05,15,08,48,1.30
2022,05,15,08,49,2.70
2022,05,15,08,50,1.80
2022,05,15,08,51,2.00
2022,05,15,08,52,2.30
2022,05,15,08,53,1.90
2022,05,15,08,54,1.60
2022,05,15,08,55,1.40
2022,05,15,08,56,1.60
2022,05,15,08,57,1.10
2022,05,15,08,58,1.50
2022,05,15,08,59,0.60
2022,05,15,09,00,2.80
2022,05,15,09,01,4.00
2022,05,15,09,02,2.90
2022,05,15,09,03,2.30
2022,05,15,09,04,2.40
2022,05,15,09,05,2.30
2022,05,15,09,06,2.40
2022,05,15,09,07,1.30
2022,05,15,09,08,0.40
2022,05,15,09,09,0.90
2022,05,15,09,10,3.00
2022,05,15,09,11,2.70
2022,05,15,09,12,3.40
2022,05,15,09,13,3.50
2022,05,15,09,14,3.50
2022,05,15,09,15,3.50
2022,05,15,09,16,1.90
2022,05,15,09,17,4.60
2022,05,15,09,18,5.90
2022,05,15,09,19,1.90
2022,05,15,09,20,0.20
2022,05,15,09,21,1.00
2022,05,15,09,22,0.90
2022,05,15,09,23,1.50
2022,05,15,09,24,2.70
2022,05,15,09,25,2.10
2022,05,15,09,26,2.70
2022,05,15,09,27,2.50
2022,05,15,09,28,3.10
2022,05,15,09,29,2.30
2022,05,15,09,30,3.40
2022,05,15,09,31,4.30
2022,05,15,09,32,0.80
2022,05,15,09,33,0.40
2022,05,15,09,34,3.20
2022,05,15,09,35,2.10
2022,05,15,09,36,1.90
2022,05,15,09,37,1.90
2022,05,15,09,38,3.70
2022,05,15,09,39,4.70
2022,05,15,09,40,0.90
2022,05,15,09,41,1.20
2022,05,15,09,42,1.50
2022,05,15,09,43,2.30
2022,05,15,09,44,0.60
2022,05,15,09,45,1.50
2022,05,15,09,46,1.80
2022,05,15,09,47,4.80
2022,05,15,09,48,2.70
2022,05,15,09,49,2.20
2022,05,15,09,50,3.20
2022,05,15,09,51,3.10
2022,05,15,09,52,4.70
2022,05,15,09,53,5.00
2022,05,15,09,54,4.70
2022,05,15,09,55,5.60
2022,05,15,09,56,4.80
2022,05,15,09,57,3.60
2022,05,15,09,58,1.70
2022,05,15,09,59,3.40
2022,05,15,10,00,3.20
2022,05,15,10,01,3.70
2022,05,15,10,02,3.10
2022,05,15,10,03,5.40
2022,05,15,10,04,8.50
2022,05,15,10,05,3.20
2022,05,15,10,06,1.90
2022,05,15,10,07,8.30
2022,05,15,10,08,3.70
2022,05,15,10,09,5.40
2022,05,15,10,10,3.10
2022,05,15,10,11,8.80
2022,05,15,10,12,2.90
2022,05,15,10,13,2.30
2022,05,15,10,14,5.90
2022,05,15,10,15,5.20
2022,05,15,10,16,3.00
2022,05,15,10,17,1.90
2022,05,15,10,18,1.80
2022,05,15,10,19,2.10
2022,05,15,10,20,3.20
2022,05,15,10,21,6.10
2022,05,15,10,22,5.60
2022,05,15,10,23,4.20
2022,05,15,10,24,2.50
2022,05,15,10,25,3.50
2022,05,15,10,26,4.80
2022,05,15,10,27,3.00
2022,05,15,10,28,4.00
2022,05,15,10,29,4.50
2022,05,15,10,30,2.70
2022,05,15,10,31,4.30
2022,05,15,10,32,3.00
2022,05,15,10,33,3.10
2022,05,15,10,34,4.80
2022,05,15,10,35,2.70
2022,05,15,10,36,3.00
2022,05,15,10,37,1.40
2022,05,15,10,38,3.30
2022,05,15,10,39,3.10
2022,05,15,10,40,3.00
2022,05,15,10,41,4.30
2022,05,15,10,42,1.60
2022,05,15,10,43,3.50
2022,05,15,10,44,3.80
2022,05,15,10,45,4.00
2022,05,15,10,46,3.30
2022,05,15,10,47,1.50
2022,05,15,10,48,4.30
2022,05,15,10,49,5.90
2022,05,15,10,50,4.30
2022,05,15,10,51,4.00
2022,05,15,10,52,6.50
2022,05,15,10,53,4.00
2022,05,15,10,54,5.40
2022,05,15,10,55,4.30
2022,05,15,10,56,4.10
2022,05,15,10,57,2.90
2022,05,15,10,58,1.90
2022,05,15,10,59,7.30
2022,05,15,11,00,4.10
2022,05,15,11,01,4.10
2022,05,15,11,02,4.00
2022,05,15,11,03,2.50
2022,05,15,11,04,1.90
2022,05,15,11,05,1.20
2022,05,15,11,06,5.80
2022,05,15,11,07,2.60
2022,05,15,11,08,2.20
2022,05,15,11,09,2.20
2022,05,15,11,10,2.80
2022,05,15,11,11,2.80
2022,05,15,11,12,2.20
2022,05,15,11,13,2.00
2022,05,15,11,14,4.00
2022,05,15,11,15,3.20
2022,05,15,11,16,3.90
2022,05,15,11,17,3.30
2022,05,15,11,18,1.80
2022,05,15,11,19,2.60
2022,05,15,11,20,2.70
2022,05,15,11,21,2.90
2022,05,15,11,22,3.50
2022,05,15,11,23,3.00
2022,05,15,11,24,4.00
2022,05,15,11,25,2.60
2022,05,15,11,26,2.70
2022,05,15,11,27,4.70
2022,05,15,11,28,1.90
2022,05,15,11,29,1.90
2022,05,15,11,30,2.60
2022,05,15,11,31,3.80
2022,05,15,11,32,4.10
2022,05,15,11,33,2.40
2022,05,15,11,34,2.50
2022,05,15,11,35,4.00
2022,05,15,11,36,5.90
2022,05,15,11,37,5.10
2022,05,15,11,38,3.00
2022,05,15,11,39,5.10
2022,05,15,11,40,1.60
2022,05,15,11,41,2.20
2022,05,15,11,42,2.70
2022,05,15,11,43,0.50
2022,05,15,11,44,0.00
2022,05,15,11,45,3.50
2022,05,15,11,46,5.10
2022,05,15,11,47,4.30
2022,05,15,11,48,2.20
2022,05,15,11,49,3.10
2022,05,15,11,50,4.80
2022,05,15,11,51,4.10
2022,05,15,11,52,3.40
2022,05,15,11,53,6.80
2022,05,15,11,54,3.80
2022,05,15,11,55,3.10
2022,05,15,11,56,4.30
2022,05,15,11,57,3.80
2022,05,15,11,58,3.10
2022,05,15,11,59,2.70
2022,05,15,12,00,2.30
2022,05,15,12,01,5.20
2022,05,15,12,02,3.80
2022,05,15,12,03,4.80
2022,05,15,12,04,3.10
2022,05,15,12,05,6.00
2022,05,15,12,06,4.70
2022,05,15,12,07,3.90
2022,05,15,12,08,4.30
2022,05,15,12,09,3.40
2022,05,15,12,10,3.70
2022,05,15,12,11,4.10
2022,05,15,12,12,5.40
2022,05,15,12,13,4.90
2022,05,15,12,14,3.00
2022,05,15,12,15,2.50
2022,05,15,12,16,3.30
2022,05,15,12,17,5.20
2022,05,15,12,18,3.50
2022,05,15,12,19,3.50
2022,05,15,12,20,2.60
2022,05,15,12,21,3.90
2022,05,15,12,22,2.70
2022,05,15,12,23,3.90
2022,05,15,12,24,2.10
2022,05,15,12,25,2.30
2022,05,15,12,26,3.30
2022,05,15,12,27,1.80
2022,05,15,12,28,2.80
2022,05,15,12,29,4.20
2022,05,15,12,30,2.20
2022,05,15,12,31,3.10
2022,05,15,12,32,5.40
2022,05,15,12,33,5.50
2022,05,15,12,34,3.50
2022,05,15,12,35,3.80
2022,05,15,12,36,2.00
2022,05,15,12,37,6.40
2022,05,15,12,38,5.00
2022,05,15,12,39,4.70
2022,05,15,12,40,3.90
2022,05,15,12,41,5.40
2022,05,15,12,42,7.50
2022,05,15,12,43,3.10
2022,05,15,12,44,4.70
2022,05,15,12,45,4.50
2022,05,15,12,46,3.80
2022,05,15,12,47,3.70
2022,05,15,12,48,3.90
2022,05,15,12,49,4.10
2022,05,15,12,50,6.10
2022,05,15,12,51,3.90
2022,05,15,12,52,4.50
2022,05,15,12,53,6.90
2022,05,15,12,54,5.40
2022,05,15,12,55,7.20
2022,05,15,12,56,5.80
2022,05,15,12,57,4.10
2022,05,15,12,58,5.10
2022,05,15,12,59,7.00
2022,05,15,13,00,5.30
2022,05,15,13,01,6.30
2022,05,15,13,02,5.00
2022,05,15,13,03,4.80
2022,05,15,13,04,5.50
2022,05,15,13,05,8.60
2022,05,15,13,06,3.10
2022,05,15,13,07,4.80
2022,05,15,13,08,7.20
2022,05,15,13,09,8.30
2022,05,15,13,10,3.20
2022,05,15,13,11,4.20
2022,05,15,13,12,3.80
2022,05,15,13,13,3.40
2022,05,15,13,14,2.20
2022,05,15,13,15,5.70
2022,05,15,13,16,5.40
2022,05,15,13,17,5.10
2022,05,15,13,18,4.20
2022,05,15,13,19,5.10
2022,05,15,13,20,10.00
2022,05,15,13,21,9.20
2022,05,15,13,22,3.40
2022,05,15,13,23,8.10
2022,05,15,13,24,5.00
2022,05,15,13,25,3.00
2022,05,15,13,26,3.50
2022,05,15,13,27,12.90
2022,05,15,13,28,6.80
2022,05,15,13,29,8.40
2022,05,15,13,30,5.50
2022,05,15,13,31,3.90
2022,05,15,13,32,3.10
2022,05,15,13,33,7.60
2022,05,15,13,34,4.40
2022,05,15,13,35,4.00
2022,05,15,13,36,5.20
2022,05,15,13,37,3.60
2022,05,15,13,38,6.00
2022,05,15,13,39,3.90
2022,05,15,13,40,4.50
2022,05,15,13,41,4.00
2022,05,15,13,42,3.50
2022,05,15,13,43,10.50
2022,05,15,13,44,5.60
2022,05,15,13,45,9.10
2022,05,15,13,46,6.80
2022,05,15,13,47,5.60
2022,05,15,13,48,4.40
2022,05,15,13,49,7.60
2022,05,15,13,50,4.90
2022,05,15,13,51,4.90
2022,05,15,13,52,3.30
2022,05,15,13,53,7.10
2022,05,15,13,54,10.10
2022,05,15,13,55,7.70
2022,05,15,13,56,5.20
2022,05,15,13,57,6.20
2022,05,15,13,58,9.80
2022,05,15,13,59,11.40
2022,05,15,14,00,10.40
2022,05,15,14,01,3.20
2022,05,15,14,02,5.30
2022,05,15,14,03,6.10
2022,05,15,14,04,4.10
2022,05,15,14,05,10.30
2022,05,15,14,06,8.70
2022,05,15,14,07,9.10
2022,05,15,14,08,6.80
2022,05,15,14,09,7.90
2022,05,15,14,10,8.20
2022,05,15,14,11,7.20
2022,05,15,14,12,6.00
2022,05,15,14,13,5.70
2022,05,15,14,14,5.80
2022,05,15,14,15,3.10
2022,05,15,14,16,5.60
2022,05,15,14,17,4.80
2022,05,15,14,18,5.60
2022,05,15,14,19,3.90
2022,05,15,14,20,4.00
2022,05,15,14,21,8.40
2022,05,15,14,22,6.40
2022,05,15,14,23,12.80
2022,05,15,14,24,4.30
2022,05,15,14,25,2.10
2022,05,15,14,26,3.50
2022,05,15,14,27,2.30
2022,05,15,14,28,2.30
2022,05,15,14,29,4.20
2022,05,15,14,30,1.90
2022,05,15,14,31,5.90
2022,05,15,14,32,4.50
2022,05,15,14,33,4.70
2022,05,15,14,34,1.60
2022,05,15,14,35,4.00
2022,05,15,14,36,4.10
2022,05,15,14,37,4.90
2022,05,15,14,38,4.50
2022,05,15,14,39,4.60
2022,05,15,14,40,3.00
2022,05,15,14,41,2.60
2022,05,15,14,42,1.00
2022,05,15,14,43,1.90
2022,05,15,14,44,2.80
2022,05,15,14,45,2.20
2022,05,15,14,46,3.90
2022,05,15,14,47,1.90
2022,05,15,14,48,3.80
2022,05,15,14,49,2.10
2022,05,15,14,50,4.30
2022,05,15,14,51,4.70
2022,05,15,14,52,2.20
2022,05,15,14,53,2.00
2022,05,15,14,54,1.90
2022,05,15,14,55,2.30
2022,05,15,14,56,6.80
2022,05,15,14,57,5.60
2022,05,15,14,58,3.50
2022,05,15,14,59,2.30
2022,05,15,15,00,5.80
2022,05,15,15,01,3.10
2022,05,15,15,02,2.80
2022,05,15,15,03,4.70
2022,05,15,15,04,3.20
2022,05,15,15,05,3.10
2022,05,15,15,06,1.10
2022,05,15,15,07,2.60
2022,05,15,15,08,3.40
2022,05,15,15,09,0.50
2022,05,15,15,10,3.70
2022,05,15,15,11,4.10
2022,05,15,15,12,2.00
2022,05,15,15,13,5.10
2022,05,15,15,14,9.30
2022,05,15,15,15,6.50
2022,05,15,15,16,3.70
2022,05,15,15,17,4.60
2022,05,15,15,18,3.70
2022,05,15,15,19,3.10
2022,05,15,15,20,1.80
2022,05,15,15,21,3.50
2022,05,15,15,22,5.60
2022,05,15,15,23,2.60
2022,05,15,15,24,2.40
2022,05,15,15,25,2.70
2022,05,15,15,26,2.10
2022,05,15,15,27,2.20
2022,05,15,15,28,4.20
2022,05,15,15,29,4.00
2022,05,15,15,30,5.90
2022,05,15,15,31,7.20
2022,05,15,15,32,3.70
2022,05,15,15,33,3.20
2022,05,15,15,34,6.40
2022,05,15,15,35,2.70
2022,05,15,15,36,3.60
2022,05,15,15,37,5.30
2022,05,15,15,38,5.50
2022,05,15,15,39,4.30
2022,05,15,15,40,4.50
2022,05,15,15,41,3.10
2022,05,15,15,42,3.10
2022,05,15,15,43,5.50
2022,05,15,15,44,4.60
2022,05,15,15,45,3.30
2022,05,15,15,46,4.10
2022,05,15,15,47,4.40
2022,05,15,15,48,4.20
2022,05,15,15,49,4.30
2022,05,15,15,50,4.00
2022,05,15,15,51,3.10
2022,05,15,15,52,3.90
2022,05,15,15,53,4.80
2022,05,15,15,54,3.80
2022,05,15,15,55,4.70
2022,05,15,15,56,5.20
2022,05,15,15,57,5.80
2022,05,15,15,58,5.00
2022,05,15,15,59,6.20
2022,05,15,16,00,4.90
2022,05,15,16,01,2.90
2022,05,15,16,02,8.30
2022,05,15,16,03,9.50
2022,05,15,16,04,5.90
2022,05,15,16,05,5.70
2022,05,15,16,06,5.00
2022,05,15,16,07,1.50
2022,05,15,16,08,4.70
2022,05,15,16,09,3.90
2022,05,15,16,10,3.10
2022,05,15,16,11,2.70
2022,05,15,16,12,4.10
2022,05,15,16,13,5.80
2022,05,15,16,14,5.30
2022,05,15,16,15,3.10
2022,05,15,16,16,4.00
2022,05,15,16,17,3.00
2022,05,15,16,18,3.60
2022,05,15,16,19,2.80
2022,05,15,16,20,4.40
2022,05,15,16,21,3.00
2022,05,15,16,22,2.30
2022,05,15,16,23,3.10
2022,05,15,16,24,1.70
2022,05,15,16,25,3.90
2022,05,15,16,26,6.00
2022,05,15,16,27,2.80
2022,05,15,16,28,3.10
2022,05,15,16,29,1.90
2022,05,15,16,30,1.10
2022,05,15,16,31,2.10
2022,05,15,16,32,3.20
2022,05,15,16,33,2.70
2022,05,15,16,34,2.80
2022,05,15,16,35,3.30
2022,05,15,16,36,2.30
2022,05,15,16,37,3.80
2022,05,15,16,38,4.60
2022,05,15,16,39,4.30
2022,05,15,16,40,2.30
2022,05,15,16,41,3.40
2022,05,15,16,42,1.80
2022,05,15,16,43,2.80
2022,05,15,16,44,3.20
2022,05,15,16,45,2.70
2022,05,15,16,46,1.50
2022,05,15,16,47,1.20
2022,05,15,16,48,1.20
2022,05,15,16,49,1.90
2022,05,15,16,50,1.70
2022,05,15,16,51,2.60
2022,05,15,16,52,3.20
2022,05,15,16,53,1.40
2022,05,15,16,54,2.30
2022,05,15,16,55,0.50
2022,05,15,16,56,1.80
2022,05,15,16,57,1.70
2022,05,15,16,58,1.00
2022,05,15,16,59,2.10
2022,05,15,17,00,4.00
2022,05,15,17,01,5.90
2022,05,15,17,02,5.70
2022,05,15,17,03,3.10
2022,05,15,17,04,6.30
2022,05,15,17,05,5.40
2022,05,15,17,06,3.50
2022,05,15,17,07,3.60
2022,05,15,17,08,8.60
2022,05,15,17,09,4.60
2022,05,15,17,10,3.50
2022,05,15,17,11,3.30
2022,05,15,17,12,4.90
2022,05,15,17,13,5.60
2022,05,15,17,14,4.70
2022,05,15,17,15,3.20
2022,05,15,17,16,3.80
2022,05,15,17,17,3.70
2022,05,15,17,18,3.70
2022,05,15,17,19,2.90
2022,05,15,17,20,4.30
2022,05,15,17,21,5.40
2022,05,15,17,22,2.80
2022,05,15,17,23,7.40
2022,05,15,17,24,3.60
2022,05,15,17,25,6.60
2022,05,15,17,26,3.30
2022,05,15,17,27,4.80
2022,05,15,17,28,3.60
2022,05,15,17,29,4.70
2022,05,15,17,30,4.50
2022,05,15,17,31,4.70
2022,05,15,17,32,7.60
2022,05,15,17,33,3.20
2022,05,15,17,34,4.50
2022,05,15,17,35,3.30
2022,05,15,17,36,4.20
2022,05,15,17,37,4.60
2022,05,15,17,38,4.10
2022,05,15,17,39,4.30
2022,05,15,17,40,3.40
2022,05,15,17,41,6.70
2022,05,15,17,42,3.40
2022,05,15,17,43,4.10
2022,05,15,17,44,5.40
2022,05,15,17,45,4.50
2022,05,15,17,46,3.90
2022,05,15,17,47,5.20
2022,05,15,17,48,6.60
2022,05,15,17,49,6.20
2022,05,15,17,50,5.50
2022,05,15,17,51,6.20
2022,05,15,17,52,7.00
2022,05,15,17,53,6.10
2022,05,15,17,54,5.00
2022,05,15,17,55,4.30
2022,05,15,17,56,6.10
2022,05,15,17,57,3.70
2022,05,15,17,58,6.40
2022,05,15,17,59,5.10
2022,05,15,18,00,2.90
2022,05,15,18,01,4.20
2022,05,15,18,02,5.60
2022,05,15,18,03,3.10
2022,05,15,18,04,4.50
2022,05,15,18,05,4.90
2022,05,15,18,06,4.60